SCP
0 0 0 0 0 0 0 0 0 0 0 0 0 0 0 0 0 0 0 0 0 0 0 0 0 0 0 0 0 0 0 0 0 0 0 0 0 0 0 0 0 0 0 0
0 0 0 0 0 0 0 0 0 0 0 0 0 0 0 0 0 0 0 0 0 0 0 0 0 0 0 0 0 0 0 0 0 0 0 0 0 0 0 0 0 0 0 0
0 0 0 0 0 0 0 0 0 0 0 0 0 0 0 0 0 0 0 0 0 0 0 0 0 0 0 0 0 0 0 0 0 0 0 0 0 0 0 0 0 0 0 0
0 0 0 0 0 0 0 0 0 0 0 0 0 0 0 0 0 0 0 0 0 0 0 0 0 0 0 0 0 0 0 0 0 0 0 0 0 0 0 0 0 0 0 0
0 0 0 0 0 0 0 0 0 0 0 0 0 0 0 0 0 0 0 0 0 0 0 0 0 0 0 0 0 0 0 0 0 0 0 0 0 0 0 0 0 0 0 0
0 0 0 0 0 0 0 0 0 0 0 0 0 0 0 0 0 0 0 0 0 0 0 0 0 0 0 0 0 0 0 0 0 0 0 0 0 0 0 0 0 0 0 0
0 0 0 0 0 0 0 0 0 0 0 0 0 0 0 0 0 0 0 0 0 0 0 0 0 0 0 0 0 -0 0 0 0 0 0 0 0 0 0 0 0 0 0 0
0 0 0 0 0 0 0 0 0 0 0 0 0 0 0 0 0 0 0 0 0 -0 0 0 0 0 0 -0 -0 0 0 0 0 0 0 0 0 0 0 0 0 0 0 0
0 0 0 0 0 0 0 0 0 0 0 0 0 0 0 0 0 0 0 -0 0 0 0 0 0 -0 -0 -0 0 -0 -0 -0 0 0 0 0 0 0 0 0 0 0 0 0
0 0 0 0 0 0 0 0 0 0 0 0 0 0 0 0 0 0 0 0 0 -0 -0 -0 -0 -0 -0 -0 -0 -0 -0 -0 0 0 0 0 0 0 0 0 0 0 0 0
0 0 0 0 0 0 0 0 0 0 0 0 0 0 0 0 0 0 -0 -0 -0 -0 0 0 -0 -0 -0 -0 -0 -0 0 0 0 0 0 0 0 0 0 0 0 0 0 0
0 0 0 0 0 0 0 0 0 0 0 0 0 0 0 0 0 0 0 -0 -0 0 0 -0 -0 -0 -0 -0 -0 0 0 0 0 0 0 0 0 0 0 0 0 0 0 0
0 0 0 0 0 0 0 0 0 0 0 0 0 0 0 0 0 0 0 0 0 0 -0 -0 -0 -0 -0 -0 0 0 0 0 0 0 0 0 0 0 0 0 0 0 0 0
0 0 0 0 0 0 0 0 0 0 0 0 0 0 0 0 0 -0 0 0 0 -0 -0 -0 -0 -0 -0 0 -0 0 0 0 0 0 0 0 0 0 0 0 0 0 0 0
0 0 0 0 0 0 0 0 0 0 0 0 0 0 0 -0 -0 0 0 0 -0 -0 -0 0 -0 -0 0 0 0 0 0 0 0 0 0 0 0 0 0 0 0 0 0 0
0 0 0 0 0 0 0 0 0 0 0 0 0 -0 -0 -0 0 0 0 -0 -0 -0 -0 -0 -0 -0 -0 0 0 0 0 0 0 0 0 0 0 0 0 0 0 0 0 0
0 0 0 0 0 0 0 0 0 0 0 0 -0 -0 -0 -0 0 0 0 -0 0 -0 -0 -0 -0 -0 0 0 0 0 0 0 0 0 0 0 0 0 0 0 0 0 0 0
0 0 0 0 0 0 0 0 0 0 0 -0 -0 -0 -0 0 0 0 -0 -0 -0 -0 -0 -0 -0 -0 0 0 0 0 0 0 0 0 0 0 0 0 0 0 0 0 0 0
0 0 0 0 0 0 0 -0 -0 0 -0 -0 -0 -0 0 0 0 0 -0 -0 -0 -0 -0 -0 -0 -0 0 0 0 0 0 0 0 0 0 0 0 0 0 0 0 0 0 0
0 0 0 0 0 0 -0 -0 0 -0 0 -0 -0 -0 0 0 0 0 -0 -0 -0 -0 -0 -0 -0 -0 0 0 0 0 0 0 0 0 0 0 0 0 0 0 0 0 0 0
0 0 0 0 0 -0 -0 -0 -0 -0 -0 -0 -0 0 0 0 0 0 -0 -0 -0 -0 -0 -0 -0 0 0 0 0 0 0 0 0 0 0 0 0 0 0 0 0 0 0 0
0 0 0 0 0 0 0 -0 -0 -0 0 -0 -0 -0 -0 0 0 0 0 -0 -0 -0 -0 -0 -0 -0 -0 0 0 0 0 0 0 0 0 0 0 0 0 0 0 0 0 0
0 0 0 0 0 0 0 0 0 -0 0 0 0 0 -0 -0 -0 0 -0 -0 -0 -0 -0 -0 -0 -0 -0 0 0 0 0 0 0 0 0 0 0 0 0 0 0 0 0 0
0 0 0 0 0 -0 -0 0 0 0 0 0 0 0 0 -0 -0 -0 -0 -0 0 0 -0 -0 -0 -0 -0 0 0 0 0 0 0 0 0 0 0 0 0 0 0 0 0 0
0 0 0 0 0 0 0 -0 0 0 0 0 0 0 0 -0 -0 -0 0 -0 -0 -0 0 -0 -0 -0 -0 -0 0 0 0 0 0 0 0 0 0 0 0 0 0 0 0 -0
0 0 0 0 0 0 0 -0 0 0 0 0 0 0 0 0 0 0 0 0 0 -0 -0 -0 -0 -0 -0 -0 -0 0 0 0 0 0 0 0 0 0 0 0 0 0 0 0
0 0 0 0 0 0 -0 0 0 0 0 0 0 0 0 0 0 0 0 0 0 0 0 0 -0 -0 -0 0 0 -0 0 0 0 0 0 0 0 0 0 0 0 0 0 0
Wind_Speed_500mb
4 8 3 8 16 21 26 26 17 21 15 15 18 24 28 26 23 19 13 8 6 10 15 20 24 27 29 32 35 36 40 42 45 46 48 51 52 54 55 58 61 61 63 65
13 7 9 16 21 26 29 28 27 28 30 25 13 13 12 4 6 9 10 12 14 18 22 27 30 34 36 38 41 43 45 48 49 51 53 56 57 58 60 61 61 61 63 66
15 5 10 21 30 33 32 24 19 24 13 9 11 11 11 11 11 13 17 19 21 24 29 33 37 39 43 46 48 49 51 53 54 55 58 60 60 62 63 62 61 64 66 68
6 9 14 13 10 8 5 10 14 19 16 15 14 16 16 16 17 18 22 23 28 34 38 40 44 48 50 51 52 54 56 57 57 58 62 63 64 64 63 63 66 66 74 72
7 15 14 18 5 2 5 5 6 13 12 12 12 18 29 18 11 20 23 30 35 39 43 49 52 53 54 57 55 57 59 60 61 60 65 64 63 62 65 66 71 89 84 70
5 6 4 13 9 5 3 13 12 8 8 17 17 17 6 14 25 32 35 39 42 46 51 53 55 55 56 59 60 62 62 63 61 61 62 61 60 67 86 78 78 73 76 83
11 6 7 11 8 3 8 9 7 9 15 19 18 23 30 36 38 35 38 42 46 50 53 55 55 56 61 62 62 63 62 63 65 62 58 65 84 79 71 71 72 73 73 71
8 6 12 13 11 10 12 8 14 20 26 32 34 35 35 39 38 41 45 48 51 54 55 55 55 57 61 64 62 62 64 64 61 62 83 78 74 70 67 66 66 72 71 70
13 3 10 9 6 6 11 20 26 31 30 27 31 36 37 40 43 47 51 54 54 54 57 59 56 57 62 63 62 62 61 62 80 80 75 66 65 63 63 62 65 67 66 69
7 14 7 5 11 15 18 20 24 21 23 25 30 33 39 46 50 54 56 55 54 56 59 62 57 57 58 58 58 61 74 79 77 73 69 63 60 57 58 60 61 62 64 65
9 6 7 9 7 8 13 14 17 15 19 23 29 39 45 51 54 55 54 53 54 58 59 61 59 56 52 53 65 72 72 72 68 64 62 60 57 56 56 55 55 55 56 58
2 12 4 8 11 11 9 11 14 21 29 32 37 46 49 51 50 52 52 55 55 55 55 57 55 55 52 71 62 63 66 65 61 59 57 58 58 56 53 55 48 53 52 48
11 5 3 4 5 11 12 15 20 28 34 39 39 40 43 47 46 51 51 51 49 52 52 53 54 58 69 61 57 58 60 57 54 53 55 57 56 58 63 52 52 55 55 46
3 4 7 5 8 10 13 18 27 31 31 34 35 36 40 45 48 47 46 47 47 47 49 49 53 64 59 56 55 54 51 47 49 49 52 54 54 53 55 60 65 76 54 48
11 9 5 5 5 11 17 24 28 30 32 33 35 39 42 45 44 44 42 42 43 45 48 48 58 58 55 53 52 49 47 43 43 46 51 51 50 50 53 56 59 67 55 42
12 5 4 5 8 14 19 24 28 30 32 36 39 42 41 39 39 40 41 41 46 54 53 52 55 56 52 52 47 44 41 38 41 44 49 48 45 46 46 46 54 55 40 32
9 6 2 5 10 15 19 24 24 29 32 36 40 41 40 38 38 41 43 41 46 52 46 48 52 49 48 43 41 42 41 41 38 41 41 39 41 43 44 42 44 53 35 23
12 9 9 11 12 13 18 22 25 29 32 36 38 39 40 41 44 46 45 42 50 52 51 48 47 45 40 40 40 37 37 36 36 36 39 39 40 44 45 37 33 44 32 21
13 16 15 15 13 12 17 22 26 28 32 35 38 41 40 39 43 47 43 41 49 58 59 49 47 43 43 39 35 33 35 35 34 33 37 38 39 41 46 38 29 26 36 19
18 17 17 15 13 16 19 22 24 27 31 35 37 41 41 44 47 49 47 41 48 51 51 50 49 46 43 39 35 35 35 36 37 36 37 40 42 39 40 40 31 25 21 27
17 15 14 12 14 18 20 21 24 28 30 34 39 40 41 49 52 46 46 50 56 54 55 53 50 48 46 46 44 40 39 39 40 40 41 42 42 39 36 35 34 28 23 18
16 14 13 13 15 18 19 21 24 25 29 33 38 40 45 50 58 53 46 51 55 55 59 57 54 50 51 51 53 53 51 49 46 45 44 43 43 41 37 33 29 27 21 15
16 14 13 14 16 17 19 22 23 25 28 36 38 43 42 44 53 59 63 60 55 56 57 56 58 59 60 62 62 61 62 60 57 54 50 47 44 41 38 35 31 23 16 13
17 14 14 14 14 16 21 23 22 24 26 29 36 37 42 51 45 56 54 57 57 59 60 58 58 64 67 69 69 70 71 71 68 63 58 55 51 45 43 38 33 25 18 8
15 14 12 11 11 15 18 19 22 23 25 27 33 32 32 39 44 50 57 59 62 65 64 64 65 66 64 66 73 74 74 74 76 74 68 65 63 57 50 44 36 27 18 12
15 12 10 10 11 13 15 17 21 24 24 26 29 31 31 31 39 43 51 53 59 62 65 68 72 70 68 69 63 69 75 79 79 80 80 74 70 69 61 53 45 35 24 11
15 15 11 9 8 9 11 14 16 20 28 25 27 30 31 31 34 39 52 56 57 57 59 62 66 70 73 70 67 71 72 76 78 80 82 83 79 74 76 67 55 44 32 20
Wind_Direction_500mb
79 117 166 237 211 206 223 227 242 257 249 263 288 293 289 287 284 274 242 249 272 298 310 312 313 314 314 311 311 308 303 300 297 295 291 289 286 283 281 280 278 276 274 271
189 176 223 242 234 237 238 243 253 262 269 274 283 280 285 304 267 252 255 269 283 294 304 307 308 310 309 311 308 306 302 299 296 294 292 289 287 286 284 282 280 277 274 272
220 189 252 253 240 236 237 233 252 247 277 359 284 281 294 304 290 288 293 289 289 297 302 305 307 307 306 304 304 302 300 298 296 295 292 291 289 286 284 283 281 276 273 272
182 190 227 82 92 25 298 234 232 249 277 282 292 299 289 290 298 302 305 301 303 304 305 305 306 307 304 303 303 302 300 299 297 296 293 291 289 287 285 281 279 280 278 277
209 201 323 206 114 229 244 164 34 299 285 306 307 304 275 270 301 306 308 306 307 306 305 306 307 306 303 303 304 302 302 299 298 296 293 292 288 285 285 283 277 282 285 279
178 223 250 77 114 77 352 247 42 12 358 348 334 283 24 325 308 308 306 304 305 304 304 305 305 304 303 303 302 302 301 298 296 295 292 289 288 286 293 290 290 289 284 286
190 250 293 96 122 89 257 53 30 345 312 301 294 304 301 303 302 302 300 301 302 301 301 301 302 302 300 301 301 301 299 296 296 293 292 289 297 298 296 294 294 291 288 287
165 193 253 141 154 247 35 323 319 306 296 297 296 297 296 296 299 300 300 302 302 301 300 300 301 302 300 300 302 299 297 298 297 293 299 301 300 298 296 294 290 294 294 295
188 191 104 145 64 348 319 310 310 306 307 301 292 296 303 304 302 302 302 302 302 302 301 301 303 303 301 301 301 303 301 299 299 305 305 306 304 301 299 296 294 294 295 296
188 158 205 254 262 284 292 297 302 314 309 307 304 306 304 304 304 303 303 303 303 303 302 302 304 302 301 304 306 303 301 306 308 311 313 310 306 303 300 300 299 297 296 293
222 174 254 123 28 341 314 314 317 319 315 313 310 306 306 304 304 303 302 303 303 303 303 304 304 304 306 309 306 308 307 309 313 315 315 315 313 310 307 305 303 300 296 291
46 87 336 38 6 5 9 12 345 328 315 313 312 308 307 305 305 304 304 305 305 304 303 305 307 306 305 312 313 309 309 314 317 317 320 320 321 317 315 318 317 314 309 297
114 81 55 61 59 26 16 348 331 325 318 316 315 312 310 309 309 308 309 307 306 308 308 309 309 301 314 317 313 312 312 314 317 322 323 323 322 320 319 317 322 324 319 308
154 155 171 77 32 10 358 338 330 323 323 323 322 321 318 315 314 313 313 313 312 311 312 313 306 314 319 318 316 316 316 319 321 322 322 324 325 324 323 324 327 329 326 315
190 188 68 65 26 1 346 340 340 338 338 337 333 329 327 323 321 320 320 319 317 318 319 317 319 322 325 325 324 324 324 327 326 324 327 331 331 329 329 328 323 324 326 321
139 135 91 46 9 358 360 352 346 347 347 341 338 337 333 330 328 328 328 328 324 327 327 326 326 329 331 333 329 329 332 334 332 332 337 339 335 329 329 332 320 337 331 325
177 157 92 20 16 21 8 354 353 353 347 346 344 340 340 340 340 339 338 337 330 336 340 336 333 337 339 335 335 340 339 338 340 344 342 339 337 336 338 337 331 344 343 339
93 86 76 82 58 27 8 5 6 1 357 352 350 349 350 351 348 344 343 343 339 349 352 347 347 344 344 347 344 341 339 342 346 347 348 349 349 345 341 338 342 346 351 347
104 104 94 75 54 35 18 17 12 7 3 0 360 1 358 354 353 353 352 352 350 352 355 356 358 359 359 357 351 351 350 346 350 354 353 354 357 356 1 359 353 350 358 348
112 103 85 74 54 40 29 23 17 16 11 8 8 9 3 5 5 4 2 0 359 359 2 7 8 10 9 11 10 6 1 359 357 358 357 360 2 358 4 10 5 3 348 359
119 104 87 78 57 42 36 28 26 23 17 17 17 12 8 14 18 12 4 5 8 14 19 19 18 19 22 23 23 18 14 11 8 6 7 3 3 5 6 9 13 13 16 9
123 113 92 78 61 46 40 37 34 29 26 24 24 20 18 19 18 25 20 12 14 21 25 25 27 29 31 33 32 30 27 21 18 16 14 10 8 8 10 10 13 17 24 31
130 115 99 81 67 57 48 45 38 36 31 27 25 26 21 22 16 19 21 24 23 28 29 31 34 36 37 38 37 36 33 29 26 24 21 18 16 12 10 13 16 11 17 31
138 126 109 92 76 62 53 45 40 37 33 27 27 24 22 28 29 30 30 29 29 34 33 31 36 39 38 37 37 37 36 33 30 28 27 24 22 18 15 14 16 18 20 14
147 139 122 102 78 62 56 51 40 35 30 25 23 22 20 19 21 22 28 30 31 33 33 33 35 37 34 32 34 34 34 34 32 30 29 28 26 25 22 17 13 10 12 26
148 144 136 119 100 77 62 50 43 37 33 27 21 19 17 14 13 16 25 26 31 32 33 33 33 34 34 34 29 30 32 31 30 31 30 29 27 26 23 21 15 10 6 10
143 142 138 129 111 86 69 63 47 37 33 30 22 17 15 13 11 14 21 24 26 26 28 30 31 33 33 32 29 32 31 31 29 29 28 28 26 24 23 20 19 16 11 0
Wind_Speed_850mb
4 8 3 8 16 21 26 26 17 21 15 15 18 24 28 26 23 19 13 8 6 10 15 20 24 27 29 32 35 36 40 42 45 46 48 51 52 54 55 58 61 61 63 65
13 7 9 16 21 26 29 28 27 28 30 25 13 13 12 4 6 9 10 12 14 18 22 27 30 34 36 38 41 43 45 48 49 51 53 56 57 58 60 61 61 61 63 66
15 5 10 21 30 33 32 24 19 24 13 9 11 11 11 11 11 13 17 19 21 24 29 33 37 39 43 46 48 49 51 53 54 55 58 60 60 62 63 62 61 64 66 68
6 9 14 13 10 8 5 10 14 19 16 15 14 16 16 16 17 18 22 23 28 34 38 40 44 48 50 51 52 54 56 57 57 58 62 63 64 64 63 63 66 66 74 72
7 15 14 18 5 2 5 5 6 13 12 12 12 18 29 18 11 20 23 30 35 39 43 49 52 53 54 57 55 57 59 60 61 60 65 64 63 62 65 66 71 89 84 70
5 6 4 13 9 5 3 13 12 8 8 17 17 17 6 14 25 32 35 39 42 46 51 53 55 55 56 59 60 62 62 63 61 61 62 61 60 67 86 78 78 73 76 83
11 6 7 11 8 3 8 9 7 9 15 19 18 23 30 36 38 35 38 42 46 50 53 55 55 56 61 62 62 63 62 63 65 62 58 65 84 79 71 71 72 73 73 71
8 6 12 13 11 10 12 8 14 20 26 32 34 35 35 39 38 41 45 48 51 54 55 55 55 57 61 64 62 62 64 64 61 62 83 78 74 70 67 66 66 72 71 70
13 3 10 9 6 6 11 20 26 31 30 27 31 36 37 40 43 47 51 54 54 54 57 59 56 57 62 63 62 62 61 62 80 80 75 66 65 63 63 62 65 67 66 69
7 14 7 5 11 15 18 20 24 21 23 25 30 33 39 46 50 54 56 55 54 56 59 62 57 57 58 58 58 61 74 79 77 73 69 63 60 57 58 60 61 62 64 65
9 6 7 9 7 8 13 14 17 15 19 23 29 39 45 51 54 55 54 53 54 58 59 61 59 56 52 53 65 72 72 72 68 64 62 60 57 56 56 55 55 55 56 58
2 12 4 8 11 11 9 11 14 21 29 32 37 46 49 51 50 52 52 55 55 55 55 57 55 55 52 71 62 63 66 65 61 59 57 58 58 56 53 55 48 53 52 48
11 5 3 4 5 11 12 15 20 28 34 39 39 40 43 47 46 51 51 51 49 52 52 53 54 58 69 61 57 58 60 57 54 53 55 57 56 58 63 52 52 55 55 46
3 4 7 5 8 10 13 18 27 31 31 34 35 36 40 45 48 47 46 47 47 47 49 49 53 64 59 56 55 54 51 47 49 49 52 54 54 53 55 60 65 76 54 48
11 9 5 5 5 11 17 24 28 30 32 33 35 39 42 45 44 44 42 42 43 45 48 48 58 58 55 53 52 49 47 43 43 46 51 51 50 50 53 56 59 67 55 42
12 5 4 5 8 14 19 24 28 30 32 36 39 42 41 39 39 40 41 41 46 54 53 52 55 56 52 52 47 44 41 38 41 44 49 48 45 46 46 46 54 55 40 32
9 6 2 5 10 15 19 24 24 29 32 36 40 41 40 38 38 41 43 41 46 52 46 48 52 49 48 43 41 42 41 41 38 41 41 39 41 43 44 42 44 53 35 23
12 9 9 11 12 13 18 22 25 29 32 36 38 39 40 41 44 46 45 42 50 52 51 48 47 45 40 40 40 37 37 36 36 36 39 39 40 44 45 37 33 44 32 21
13 16 15 15 13 12 17 22 26 28 32 35 38 41 40 39 43 47 43 41 49 58 59 49 47 43 43 39 35 33 35 35 34 33 37 38 39 41 46 38 29 26 36 19
18 17 17 15 13 16 19 22 24 27 31 35 37 41 41 44 47 49 47 41 48 51 51 50 49 46 43 39 35 35 35 36 37 36 37 40 42 39 40 40 31 25 21 27
17 15 14 12 14 18 20 21 24 28 30 34 39 40 41 49 52 46 46 50 56 54 55 53 50 48 46 46 44 40 39 39 40 40 41 42 42 39 36 35 34 28 23 18
16 14 13 13 15 18 19 21 24 25 29 33 38 40 45 50 58 53 46 51 55 55 59 57 54 50 51 51 53 53 51 49 46 45 44 43 43 41 37 33 29 27 21 15
16 14 13 14 16 17 19 22 23 25 28 36 38 43 42 44 53 59 63 60 55 56 57 56 58 59 60 62 62 61 62 60 57 54 50 47 44 41 38 35 31 23 16 13
17 14 14 14 14 16 21 23 22 24 26 29 36 37 42 51 45 56 54 57 57 59 60 58 58 64 67 69 69 70 71 71 68 63 58 55 51 45 43 38 33 25 18 8
15 14 12 11 11 15 18 19 22 23 25 27 33 32 32 39 44 50 57 59 62 65 64 64 65 66 64 66 73 74 74 74 76 74 68 65 63 57 50 44 36 27 18 12
15 12 10 10 11 13 15 17 21 24 24 26 29 31 31 31 39 43 51 53 59 62 65 68 72 70 68 69 63 69 75 79 79 80 80 74 70 69 61 53 45 35 24 11
15 15 11 9 8 9 11 14 16 20 28 25 27 30 31 31 34 39 52 56 57 57 59 62 66 70 73 70 67 71 72 76 78 80 82 83 79 74 76 67 55 44 32 20
Wind_Direction_850mb
79 117 166 237 211 206 223 227 242 257 249 263 288 293 289 287 284 274 242 249 272 298 310 312 313 314 314 311 311 308 303 300 297 295 291 289 286 283 281 280 278 276 274 271
189 176 223 242 234 237 238 243 253 262 269 274 283 280 285 304 267 252 255 269 283 294 304 307 308 310 309 311 308 306 302 299 296 294 292 289 287 286 284 282 280 277 274 272
220 189 252 253 240 236 237 233 252 247 277 359 284 281 294 304 290 288 293 289 289 297 302 305 307 307 306 304 304 302 300 298 296 295 292 291 289 286 284 283 281 276 273 272
182 190 227 82 92 25 298 234 232 249 277 282 292 299 289 290 298 302 305 301 303 304 305 305 306 307 304 303 303 302 300 299 297 296 293 291 289 287 285 281 279 280 278 277
209 201 323 206 114 229 244 164 34 299 285 306 307 304 275 270 301 306 308 306 307 306 305 306 307 306 303 303 304 302 302 299 298 296 293 292 288 285 285 283 277 282 285 279
178 223 250 77 114 77 352 247 42 12 358 348 334 283 24 325 308 308 306 304 305 304 304 305 305 304 303 303 302 302 301 298 296 295 292 289 288 286 293 290 290 289 284 286
190 250 293 96 122 89 257 53 30 345 312 301 294 304 301 303 302 302 300 301 302 301 301 301 302 302 300 301 301 301 299 296 296 293 292 289 297 298 296 294 294 291 288 287
165 193 253 141 154 247 35 323 319 306 296 297 296 297 296 296 299 300 300 302 302 301 300 300 301 302 300 300 302 299 297 298 297 293 299 301 300 298 296 294 290 294 294 295
188 191 104 145 64 348 319 310 310 306 307 301 292 296 303 304 302 302 302 302 302 302 301 301 303 303 301 301 301 303 301 299 299 305 305 306 304 301 299 296 294 294 295 296
188 158 205 254 262 284 292 297 302 314 309 307 304 306 304 304 304 303 303 303 303 303 302 302 304 302 301 304 306 303 301 306 308 311 313 310 306 303 300 300 299 297 296 293
222 174 254 123 28 341 314 314 317 319 315 313 310 306 306 304 304 303 302 303 303 303 303 304 304 304 306 309 306 308 307 309 313 315 315 315 313 310 307 305 303 300 296 291
46 87 336 38 6 5 9 12 345 328 315 313 312 308 307 305 305 304 304 305 305 304 303 305 307 306 305 312 313 309 309 314 317 317 320 320 321 317 315 318 317 314 309 297
114 81 55 61 59 26 16 348 331 325 318 316 315 312 310 309 309 308 309 307 306 308 308 309 309 301 314 317 313 312 312 314 317 322 323 323 322 320 319 317 322 324 319 308
154 155 171 77 32 10 358 338 330 323 323 323 322 321 318 315 314 313 313 313 312 311 312 313 306 314 319 318 316 316 316 319 321 322 322 324 325 324 323 324 327 329 326 315
190 188 68 65 26 1 346 340 340 338 338 337 333 329 327 323 321 320 320 319 317 318 319 317 319 322 325 325 324 324 324 327 326 324 327 331 331 329 329 328 323 324 326 321
139 135 91 46 9 358 360 352 346 347 347 341 338 337 333 330 328 328 328 328 324 327 327 326 326 329 331 333 329 329 332 334 332 332 337 339 335 329 329 332 320 337 331 325
177 157 92 20 16 21 8 354 353 353 347 346 344 340 340 340 340 339 338 337 330 336 340 336 333 337 339 335 335 340 339 338 340 344 342 339 337 336 338 337 331 344 343 339
93 86 76 82 58 27 8 5 6 1 357 352 350 349 350 351 348 344 343 343 339 349 352 347 347 344 344 347 344 341 339 342 346 347 348 349 349 345 341 338 342 346 351 347
104 104 94 75 54 35 18 17 12 7 3 0 360 1 358 354 353 353 352 352 350 352 355 356 358 359 359 357 351 351 350 346 350 354 353 354 357 356 1 359 353 350 358 348
112 103 85 74 54 40 29 23 17 16 11 8 8 9 3 5 5 4 2 0 359 359 2 7 8 10 9 11 10 6 1 359 357 358 357 360 2 358 4 10 5 3 348 359
119 104 87 78 57 42 36 28 26 23 17 17 17 12 8 14 18 12 4 5 8 14 19 19 18 19 22 23 23 18 14 11 8 6 7 3 3 5 6 9 13 13 16 9
123 113 92 78 61 46 40 37 34 29 26 24 24 20 18 19 18 25 20 12 14 21 25 25 27 29 31 33 32 30 27 21 18 16 14 10 8 8 10 10 13 17 24 31
130 115 99 81 67 57 48 45 38 36 31 27 25 26 21 22 16 19 21 24 23 28 29 31 34 36 37 38 37 36 33 29 26 24 21 18 16 12 10 13 16 11 17 31
138 126 109 92 76 62 53 45 40 37 33 27 27 24 22 28 29 30 30 29 29 34 33 31 36 39 38 37 37 37 36 33 30 28 27 24 22 18 15 14 16 18 20 14
147 139 122 102 78 62 56 51 40 35 30 25 23 22 20 19 21 22 28 30 31 33 33 33 35 37 34 32 34 34 34 34 32 30 29 28 26 25 22 17 13 10 12 26
148 144 136 119 100 77 62 50 43 37 33 27 21 19 17 14 13 16 25 26 31 32 33 33 33 34 34 34 29 30 32 31 30 31 30 29 27 26 23 21 15 10 6 10
143 142 138 129 111 86 69 63 47 37 33 30 22 17 15 13 11 14 21 24 26 26 28 30 31 33 33 32 29 32 31 31 29 29 28 28 26 24 23 20 19 16 11 0